GFSGL_prec_pwat_207.txt.gz
Precipitable_Water
0.42 0.41 0.43 0.43 0.45 0.57 0.53 0.57 0.66 0.80 0.83 0.83 1.07 1.20 1.24 1.24 1.24 1.22 1.24 1.24 1.23 1.22 1.21 1.17 1.21 1.28 1.25 1.21 1.11 1.05 0.97 0.98 0.84 0.87 0.89 0.88 0.89 0.89 0.87 0.85 0.82 0.74 0.73
0.43 0.42 0.43 0.43 0.46 0.53 0.46 0.52 0.67 0.80 0.86 0.98 1.20 1.24 1.26 1.23 1.24 1.28 1.25 1.25 1.19 1.19 1.22 1.23 1.24 1.27 1.19 1.12 1.07 1.03 1.01 0.98 0.87 0.75 0.83 0.84 0.85 0.76 0.72 0.72 0.70 0.65 0.61
0.43 0.43 0.42 0.41 0.45 0.46 0.43 0.51 0.69 0.83 0.84 1.08 1.21 1.24 1.23 1.22 1.27 1.30 1.26 1.22 1.22 1.25 1.24 1.20 1.22 1.16 1.08 1.06 1.05 1.00 0.99 0.92 0.87 0.81 0.79 0.75 0.70 0.65 0.60 0.58 0.51 0.47 0.44
0.42 0.42 0.41 0.39 0.46 0.46 0.43 0.52 0.72 0.83 0.85 1.05 1.20 1.24 1.30 1.29 1.28 1.26 1.24 1.22 1.25 1.25 1.23 1.23 1.14 1.11 1.08 1.07 1.01 0.97 0.91 0.87 0.86 0.70 0.62 0.60 0.57 0.53 0.50 0.42 0.32 0.28 0.26
0.41 0.40 0.38 0.41 0.45 0.44 0.41 0.51 0.71 0.81 0.85 1.05 1.19 1.23 1.21 1.19 1.21 1.25 1.26 1.23 1.19 1.20 1.18 1.16 1.16 1.15 1.11 1.06 0.98 0.90 0.89 0.81 0.63 0.53 0.50 0.50 0.46 0.41 0.32 0.26 0.23 0.25 0.26
0.39 0.35 0.36 0.42 0.41 0.42 0.40 0.48 0.69 0.76 0.82 0.90 1.05 1.14 1.13 1.15 1.25 1.27 1.22 1.18 1.21 1.13 1.08 1.11 1.11 1.08 1.03 1.00 0.96 0.95 0.84 0.64 0.55 0.51 0.45 0.40 0.32 0.25 0.25 0.23 0.22 0.21 0.20
0.33 0.33 0.35 0.40 0.38 0.40 0.40 0.49 0.70 0.74 0.80 0.81 0.93 1.02 1.08 1.21 1.25 1.23 1.21 1.20 1.11 1.10 1.08 1.04 0.99 0.99 0.96 0.94 0.91 0.67 0.62 0.57 0.55 0.47 0.34 0.24 0.22 0.23 0.23 0.21 0.20 0.22 0.22
0.31 0.33 0.34 0.38 0.37 0.39 0.39 0.47 0.69 0.76 0.81 0.85 0.98 1.13 1.18 1.17 1.24 1.22 1.19 1.13 1.09 1.07 1.03 0.96 0.91 0.87 0.88 0.75 0.53 0.49 0.45 0.39 0.31 0.25 0.23 0.22 0.21 0.22 0.22 0.22 0.21 0.21 0.21
0.30 0.32 0.34 0.36 0.37 0.39 0.38 0.47 0.68 0.75 0.83 0.91 1.15 1.14 1.15 1.14 1.19 1.14 1.13 1.08 1.03 0.97 0.94 0.90 0.86 0.83 0.63 0.49 0.40 0.32 0.26 0.27 0.32 0.30 0.28 0.27 0.25 0.24 0.23 0.22 0.18 0.16 0.15
0.31 0.32 0.35 0.37 0.38 0.39 0.42 0.56 0.70 0.79 0.86 1.06 1.11 1.12 1.11 1.11 1.14 1.14 1.08 1.01 0.90 0.86 0.87 0.85 0.83 0.57 0.45 0.38 0.27 0.19 0.20 0.20 0.17 0.17 0.18 0.20 0.23 0.24 0.22 0.21 0.18 0.15 0.15
0.35 0.36 0.37 0.39 0.39 0.43 0.49 0.68 0.79 0.87 0.95 1.03 1.05 1.08 1.09 1.12 1.12 1.11 1.03 0.93 0.87 0.83 0.80 0.67 0.52 0.40 0.32 0.23 0.21 0.20 0.16 0.18 0.18 0.18 0.19 0.20 0.20 0.21 0.21 0.20 0.20 0.18 0.14
0.37 0.36 0.37 0.40 0.42 0.49 0.65 0.80 0.90 0.92 0.94 0.95 0.99 1.00 1.06 1.08 1.12 1.05 0.98 0.90 0.88 0.76 0.51 0.42 0.32 0.25 0.21 0.22 0.21 0.20 0.19 0.18 0.19 0.19 0.19 0.18 0.19 0.20 0.20 0.20 0.22 0.22 0.21
0.38 0.36 0.38 0.41 0.46 0.64 0.84 0.87 0.89 0.96 0.97 0.90 0.95 0.96 0.99 1.05 1.05 1.00 0.94 0.89 0.74 0.49 0.35 0.25 0.24 0.22 0.23 0.23 0.22 0.20 0.19 0.19 0.19 0.18 0.17 0.19 0.20 0.21 0.21 0.21 0.22 0.22 0.22
0.38 0.38 0.39 0.42 0.54 0.78 0.86 0.91 0.91 0.91 0.96 0.93 0.94 0.94 0.96 0.95 0.88 0.92 0.87 0.71 0.45 0.31 0.26 0.25 0.23 0.23 0.23 0.21 0.19 0.20 0.21 0.21 0.19 0.18 0.19 0.20 0.22 0.21 0.19 0.21 0.20 0.20 0.19
0.41 0.40 0.41 0.52 0.74 0.83 0.90 0.91 0.92 0.96 1.01 0.94 0.98 0.97 0.94 0.87 0.89 0.87 0.71 0.43 0.33 0.24 0.23 0.21 0.19 0.18 0.17 0.18 0.19 0.21 0.21 0.20 0.19 0.20 0.20 0.20 0.21 0.21 0.20 0.22 0.21 0.20 0.18
0.41 0.42 0.51 0.70 0.82 0.87 0.88 0.88 0.97 1.01 1.05 1.08 1.05 0.99 0.94 0.92 0.86 0.72 0.47 0.35 0.25 0.22 0.16 0.16 0.16 0.16 0.17 0.17 0.18 0.19 0.20 0.20 0.20 0.21 0.21 0.21 0.22 0.22 0.22 0.21 0.21 0.20 0.18
0.43 0.48 0.64 0.80 0.84 0.84 0.85 0.84 0.81 0.94 1.03 1.04 1.02 0.96 0.91 0.83 0.63 0.45 0.35 0.24 0.22 0.17 0.15 0.16 0.16 0.17 0.17 0.18 0.19 0.19 0.19 0.21 0.22 0.22 0.22 0.23 0.24 0.24 0.23 0.22 0.21 0.19 0.18
0.51 0.63 0.79 0.85 0.85 0.86 0.87 0.86 0.89 0.88 0.86 0.88 0.98 0.94 0.90 0.64 0.42 0.33 0.23 0.20 0.16 0.16 0.16 0.16 0.17 0.18 0.18 0.18 0.19 0.20 0.20 0.22 0.22 0.23 0.24 0.24 0.24 0.23 0.23 0.22 0.23 0.22 0.20
0.64 0.80 0.85 0.86 0.87 0.88 0.89 0.90 0.91 0.88 0.88 0.85 0.85 0.86 0.62 0.41 0.32 0.24 0.20 0.16 0.13 0.15 0.17 0.18 0.18 0.18 0.19 0.20 0.21 0.21 0.22 0.22 0.24 0.24 0.25 0.25 0.26 0.25 0.24 0.25 0.24 0.24 0.24
0.79 0.85 0.86 0.87 0.87 0.88 0.89 0.89 0.88 0.84 0.83 0.83 0.77 0.51 0.38 0.28 0.19 0.18 0.18 0.14 0.15 0.17 0.19 0.18 0.19 0.20 0.21 0.21 0.22 0.23 0.23 0.24 0.24 0.25 0.26 0.26 0.26 0.26 0.25 0.24 0.24 0.24 0.24
0.84 0.86 0.88 0.88 0.88 0.89 0.90 0.89 0.89 0.87 0.83 0.77 0.53 0.38 0.29 0.18 0.18 0.19 0.15 0.14 0.16 0.19 0.19 0.19 0.20 0.21 0.22 0.23 0.23 0.24 0.24 0.25 0.25 0.26 0.27 0.27 0.27 0.26 0.27 0.26 0.26 0.26 0.26
0.86 0.87 0.88 0.87 0.89 0.89 0.89 0.90 0.89 0.87 0.79 0.55 0.37 0.30 0.23 0.19 0.20 0.17 0.15 0.16 0.19 0.20 0.20 0.21 0.21 0.22 0.23 0.24 0.24 0.24 0.24 0.25 0.26 0.27 0.28 0.28 0.28 0.28 0.28 0.27 0.27 0.27 0.27
0.88 0.87 0.87 0.87 0.89 0.90 0.89 0.89 0.87 0.85 0.68 0.38 0.28 0.22 0.19 0.20 0.20 0.16 0.15 0.18 0.20 0.20 0.21 0.22 0.22 0.23 0.25 0.26 0.27 0.26 0.25 0.26 0.27 0.29 0.28 0.29 0.28 0.28 0.28 0.28 0.28 0.27 0.28
0.88 0.88 0.87 0.87 0.88 0.88 0.87 0.87 0.85 0.75 0.47 0.30 0.23 0.18 0.19 0.21 0.19 0.16 0.16 0.19 0.20 0.20 0.22 0.22 0.23 0.23 0.24 0.26 0.27 0.28 0.28 0.29 0.30 0.30 0.31 0.30 0.29 0.30 0.30 0.29 0.29 0.30 0.30
0.88 0.87 0.86 0.87 0.85 0.87 0.86 0.87 0.85 0.68 0.38 0.27 0.19 0.18 0.20 0.21 0.18 0.17 0.18 0.20 0.20 0.21 0.21 0.22 0.23 0.24 0.25 0.25 0.27 0.28 0.29 0.29 0.30 0.31 0.32 0.32 0.31 0.31 0.31 0.31 0.30 0.30 0.30
0.87 0.87 0.86 0.86 0.87 0.87 0.87 0.87 0.79 0.54 0.35 0.23 0.17 0.19 0.21 0.20 0.18 0.17 0.18 0.20 0.20 0.21 0.21 0.23 0.23 0.24 0.25 0.26 0.27 0.28 0.29 0.30 0.30 0.32 0.33 0.32 0.31 0.31 0.31 0.31 0.31 0.31 0.31

GFSGL_prec_pwat_210.txt.gz
Precipitable_Water
0.42 0.44 0.45 0.44 0.44 0.41 0.43 0.51 0.55 0.59 0.72 0.76 0.87 0.87 0.87 0.99 1.06 1.12 1.15 1.19 1.18 1.20 1.25 1.27 1.25 1.29 1.23 1.23 1.19 1.20 1.12 1.04 0.87 0.90 0.97 0.96 0.93 0.91 0.92 0.92 0.87 0.77 0.73
0.39 0.43 0.43 0.43 0.44 0.40 0.46 0.55 0.49 0.58 0.74 0.83 0.89 0.93 1.03 1.18 1.22 1.17 1.18 1.21 1.19 1.19 1.21 1.23 1.22 1.28 1.22 1.22 1.22 1.14 1.08 1.02 0.95 0.87 0.88 0.85 0.85 0.89 0.87 0.74 0.68 0.67 0.61
0.36 0.40 0.41 0.42 0.40 0.40 0.48 0.53 0.49 0.62 0.80 0.87 0.93 1.01 1.16 1.21 1.21 1.23 1.23 1.22 1.24 1.24 1.23 1.19 1.17 1.18 1.18 1.20 1.16 1.09 1.05 1.01 0.98 0.87 0.79 0.84 0.84 0.75 0.62 0.58 0.54 0.50 0.44
0.38 0.40 0.39 0.39 0.38 0.41 0.49 0.49 0.48 0.68 0.82 0.85 0.96 1.06 1.16 1.22 1.23 1.26 1.25 1.23 1.27 1.24 1.23 1.22 1.23 1.17 1.16 1.13 1.09 1.07 1.02 0.95 0.89 0.83 0.80 0.71 0.64 0.57 0.50 0.43 0.37 0.32 0.28
0.33 0.34 0.35 0.38 0.38 0.44 0.47 0.46 0.48 0.68 0.83 0.89 0.94 1.04 1.22 1.23 1.23 1.20 1.24 1.21 1.18 1.18 1.25 1.21 1.20 1.22 1.19 1.16 1.10 1.02 0.94 0.88 0.83 0.64 0.56 0.53 0.51 0.46 0.40 0.29 0.24 0.26 0.27
0.31 0.33 0.35 0.35 0.36 0.43 0.43 0.46 0.48 0.64 0.81 0.88 0.92 1.01 1.20 1.20 1.21 1.22 1.23 1.18 1.17 1.14 1.13 1.16 1.18 1.19 1.18 1.14 1.04 0.99 0.94 0.82 0.60 0.53 0.51 0.46 0.41 0.29 0.26 0.26 0.25 0.25 0.22
0.32 0.33 0.33 0.34 0.36 0.40 0.42 0.46 0.47 0.70 0.81 0.85 0.91 1.08 1.18 1.13 1.19 1.19 1.21 1.18 1.16 1.13 1.11 1.11 1.11 1.14 1.09 1.02 0.98 0.95 0.77 0.66 0.63 0.54 0.43 0.28 0.23 0.24 0.24 0.22 0.24 0.24 0.23
0.33 0.34 0.35 0.35 0.37 0.39 0.42 0.44 0.49 0.70 0.80 0.84 0.95 1.08 1.07 1.10 1.19 1.19 1.12 1.13 1.11 1.09 1.11 1.09 1.02 0.98 0.96 0.90 0.73 0.56 0.54 0.51 0.44 0.29 0.24 0.23 0.23 0.25 0.24 0.23 0.22 0.22 0.22
0.33 0.35 0.37 0.37 0.37 0.39 0.40 0.43 0.58 0.69 0.80 0.86 0.99 1.05 1.05 1.12 1.13 1.11 1.08 1.08 1.07 1.04 1.02 0.97 0.94 0.88 0.85 0.61 0.49 0.41 0.33 0.27 0.29 0.26 0.26 0.26 0.25 0.25 0.24 0.22 0.19 0.17 0.16
0.37 0.36 0.38 0.38 0.38 0.39 0.42 0.47 0.61 0.75 0.83 0.94 0.97 1.02 1.10 1.08 1.10 1.09 1.11 1.07 0.97 0.92 0.92 0.87 0.85 0.71 0.50 0.46 0.32 0.21 0.19 0.20 0.20 0.20 0.20 0.22 0.23 0.23 0.21 0.19 0.18 0.15 0.15
0.40 0.39 0.38 0.39 0.39 0.41 0.46 0.54 0.67 0.81 0.87 0.96 0.98 1.05 1.07 1.07 1.09 1.13 1.09 0.98 0.91 0.85 0.81 0.79 0.57 0.42 0.36 0.24 0.19 0.17 0.16 0.19 0.20 0.19 0.20 0.20 0.20 0.19 0.19 0.19 0.18 0.15 0.13
0.42 0.39 0.37 0.38 0.39 0.43 0.54 0.63 0.78 0.85 0.87 0.90 0.92 0.97 1.01 1.05 1.07 1.07 1.01 0.96 0.90 0.81 0.68 0.45 0.36 0.26 0.22 0.21 0.21 0.21 0.21 0.21 0.20 0.19 0.18 0.18 0.17 0.18 0.20 0.21 0.21 0.20 0.20
0.42 0.39 0.37 0.38 0.40 0.51 0.64 0.76 0.84 0.87 0.87 0.86 0.90 0.91 0.93 1.00 1.02 0.98 0.95 0.90 0.83 0.58 0.40 0.28 0.25 0.24 0.24 0.23 0.23 0.23 0.22 0.20 0.19 0.18 0.17 0.17 0.18 0.21 0.21 0.21 0.21 0.22 0.23
0.42 0.39 0.38 0.38 0.45 0.60 0.74 0.82 0.86 0.87 0.90 0.91 0.91 0.89 0.92 0.94 0.92 0.90 0.85 0.66 0.49 0.32 0.27 0.25 0.24 0.23 0.22 0.22 0.22 0.22 0.20 0.20 0.19 0.19 0.18 0.19 0.20 0.20 0.19 0.20 0.20 0.21 0.20
0.43 0.39 0.39 0.46 0.54 0.71 0.80 0.84 0.90 0.95 0.98 0.91 0.94 0.94 0.91 0.84 0.86 0.83 0.54 0.41 0.29 0.24 0.22 0.22 0.19 0.18 0.19 0.21 0.21 0.20 0.21 0.21 0.20 0.20 0.20 0.19 0.18 0.19 0.19 0.20 0.19 0.19 0.18
0.43 0.40 0.46 0.57 0.71 0.77 0.81 0.84 0.94 0.98 1.00 1.01 1.02 1.01 0.94 0.92 0.82 0.58 0.39 0.29 0.23 0.20 0.18 0.17 0.17 0.19 0.19 0.19 0.18 0.19 0.21 0.21 0.21 0.21 0.21 0.21 0.19 0.18 0.18 0.19 0.19 0.18 0.18
0.43 0.49 0.60 0.74 0.81 0.83 0.83 0.82 0.80 0.90 0.97 1.02 1.02 0.99 0.95 0.87 0.59 0.39 0.30 0.22 0.20 0.19 0.16 0.17 0.18 0.18 0.19 0.19 0.19 0.20 0.20 0.22 0.23 0.22 0.22 0.22 0.22 0.21 0.20 0.19 0.18 0.18 0.18
0.55 0.68 0.76 0.80 0.82 0.82 0.84 0.84 0.84 0.83 0.81 0.88 0.97 0.96 0.88 0.63 0.39 0.29 0.21 0.19 0.18 0.19 0.19 0.18 0.18 0.19 0.19 0.19 0.20 0.21 0.22 0.24 0.23 0.23 0.23 0.23 0.23 0.22 0.22 0.22 0.21 0.20 0.19
0.72 0.78 0.81 0.83 0.84 0.84 0.86 0.86 0.85 0.84 0.85 0.83 0.84 0.81 0.60 0.39 0.28 0.21 0.18 0.16 0.17 0.18 0.19 0.19 0.19 0.20 0.20 0.21 0.22 0.23 0.24 0.23 0.24 0.24 0.24 0.24 0.25 0.24 0.23 0.24 0.24 0.25 0.24
0.83 0.83 0.83 0.83 0.83 0.85 0.87 0.85 0.86 0.85 0.83 0.79 0.71 0.49 0.35 0.25 0.18 0.17 0.17 0.18 0.19 0.19 0.19 0.19 0.20 0.21 0.23 0.24 0.24 0.25 0.25 0.24 0.25 0.25 0.25 0.25 0.25 0.25 0.24 0.25 0.25 0.25 0.25
0.83 0.83 0.85 0.85 0.86 0.88 0.87 0.88 0.88 0.85 0.83 0.75 0.47 0.33 0.25 0.18 0.17 0.16 0.17 0.19 0.19 0.19 0.20 0.21 0.22 0.23 0.24 0.25 0.26 0.25 0.25 0.25 0.26 0.26 0.26 0.26 0.26 0.25 0.26 0.27 0.27 0.27 0.26
0.84 0.84 0.85 0.86 0.87 0.87 0.88 0.87 0.88 0.85 0.74 0.41 0.30 0.25 0.21 0.19 0.16 0.16 0.19 0.20 0.21 0.22 0.23 0.23 0.24 0.25 0.26 0.26 0.26 0.25 0.25 0.26 0.27 0.28 0.27 0.28 0.28 0.28 0.28 0.28 0.28 0.28 0.28
0.86 0.86 0.86 0.87 0.88 0.88 0.85 0.87 0.83 0.71 0.39 0.28 0.22 0.20 0.20 0.17 0.16 0.18 0.19 0.20 0.22 0.23 0.24 0.25 0.25 0.26 0.28 0.28 0.28 0.28 0.26 0.27 0.29 0.30 0.29 0.28 0.28 0.28 0.29 0.28 0.29 0.29 0.29
0.88 0.87 0.87 0.87 0.88 0.87 0.85 0.84 0.71 0.44 0.28 0.21 0.19 0.20 0.19 0.16 0.17 0.19 0.20 0.21 0.22 0.24 0.25 0.26 0.26 0.26 0.27 0.27 0.28 0.29 0.29 0.30 0.31 0.31 0.31 0.30 0.29 0.30 0.30 0.30 0.31 0.31 0.31
0.88 0.87 0.87 0.87 0.87 0.86 0.85 0.73 0.48 0.32 0.23 0.19 0.20 0.21 0.17 0.16 0.18 0.19 0.20 0.22 0.23 0.24 0.25 0.26 0.27 0.26 0.27 0.27 0.28 0.29 0.29 0.30 0.31 0.32 0.33 0.32 0.31 0.31 0.31 0.32 0.32 0.32 0.32
0.87 0.88 0.88 0.88 0.88 0.88 0.82 0.64 0.36 0.27 0.19 0.18 0.21 0.21 0.17 0.16 0.19 0.20 0.20 0.22 0.23 0.24 0.25 0.26 0.26 0.26 0.27 0.27 0.28 0.29 0.29 0.30 0.32 0.33 0.34 0.33 0.32 0.32 0.32 0.32 0.32 0.32 0.33

GFSGL_prec_pwat_216.txt.gz
Precipitable_Water
0.29 0.30 0.29 0.32 0.37 0.40 0.42 0.42 0.41 0.41 0.41 0.44 0.49 0.52 0.57 0.64 0.69 0.75 0.79 0.80 0.80 0.83 0.90 1.04 1.11 1.18 1.11 1.17 1.26 1.24 1.15 1.11 1.01 0.99 1.02 1.06 1.05 0.99 0.99 1.00 0.99 0.98 0.95
0.28 0.27 0.29 0.31 0.34 0.35 0.36 0.37 0.38 0.38 0.44 0.49 0.51 0.54 0.64 0.67 0.75 0.78 0.77 0.83 0.85 0.84 0.92 1.04 1.12 1.15 1.10 1.23 1.21 1.16 1.15 1.12 1.00 0.91 0.93 0.93 0.95 0.95 0.94 0.92 0.89 0.87 0.84
0.25 0.26 0.27 0.28 0.31 0.34 0.35 0.37 0.39 0.43 0.49 0.48 0.53 0.68 0.77 0.77 0.81 0.82 0.86 0.88 0.97 0.95 0.97 1.08 1.17 1.15 1.16 1.17 1.16 1.12 1.11 1.10 1.01 0.94 0.87 0.91 0.91 0.90 0.88 0.86 0.82 0.78 0.68
0.24 0.24 0.25 0.27 0.32 0.36 0.38 0.40 0.42 0.48 0.45 0.49 0.65 0.78 0.83 0.85 0.88 0.93 0.95 0.97 1.04 1.07 1.12 1.15 1.14 1.16 1.13 1.14 1.11 1.08 1.07 1.01 0.96 0.92 0.90 0.88 0.88 0.87 0.82 0.73 0.63 0.56 0.40
0.26 0.24 0.25 0.29 0.34 0.38 0.39 0.41 0.48 0.45 0.50 0.53 0.69 0.82 0.91 0.91 0.97 1.02 1.04 1.03 1.09 1.14 1.14 1.18 1.16 1.20 1.20 1.17 1.11 1.08 1.02 0.98 0.92 0.90 0.85 0.83 0.80 0.77 0.65 0.59 0.49 0.34 0.26
0.29 0.30 0.32 0.35 0.37 0.39 0.43 0.47 0.44 0.46 0.48 0.62 0.73 0.86 0.86 0.89 0.96 1.03 1.09 1.10 1.19 1.16 1.13 1.13 1.18 1.19 1.18 1.17 1.11 1.09 1.07 0.96 0.91 0.87 0.82 0.71 0.63 0.54 0.50 0.38 0.29 0.24 0.20
0.35 0.38 0.41 0.43 0.43 0.42 0.45 0.42 0.42 0.45 0.60 0.70 0.80 0.87 0.85 0.88 0.94 0.99 1.06 1.15 1.16 1.12 1.12 1.11 1.12 1.12 1.12 1.09 1.07 1.05 1.02 0.98 0.94 0.77 0.57 0.54 0.47 0.44 0.36 0.28 0.26 0.25 0.23
0.43 0.44 0.45 0.44 0.42 0.43 0.40 0.40 0.45 0.61 0.73 0.83 0.89 0.95 1.01 1.02 1.04 1.07 1.12 1.15 1.12 1.11 1.10 1.09 1.06 1.06 1.07 1.02 0.97 0.90 0.85 0.74 0.62 0.52 0.46 0.42 0.36 0.30 0.28 0.27 0.26 0.23 0.22
0.48 0.49 0.48 0.47 0.44 0.42 0.40 0.44 0.58 0.72 0.81 0.87 0.98 1.01 1.03 1.07 1.10 1.08 1.08 1.05 1.03 1.04 1.06 1.07 1.06 0.99 0.95 0.92 0.83 0.63 0.54 0.50 0.51 0.45 0.34 0.30 0.28 0.26 0.24 0.21 0.17 0.16 0.15
0.49 0.50 0.50 0.50 0.44 0.42 0.44 0.53 0.70 0.80 0.83 0.91 0.96 0.98 1.00 0.99 1.06 1.08 1.06 1.02 0.96 0.94 0.95 0.95 0.94 0.89 0.79 0.64 0.52 0.45 0.37 0.31 0.24 0.22 0.22 0.23 0.23 0.22 0.21 0.20 0.18 0.13 0.13
0.52 0.52 0.51 0.47 0.43 0.44 0.50 0.65 0.78 0.84 0.87 0.89 0.93 0.95 0.96 0.99 1.03 1.03 1.02 1.00 0.96 0.92 0.89 0.88 0.82 0.63 0.54 0.46 0.35 0.23 0.18 0.21 0.20 0.19 0.18 0.17 0.17 0.17 0.18 0.19 0.19 0.18 0.16
0.51 0.49 0.47 0.45 0.44 0.48 0.61 0.75 0.83 0.87 0.85 0.88 0.89 0.90 0.95 0.99 0.99 0.98 0.97 0.93 0.89 0.80 0.71 0.53 0.46 0.38 0.27 0.24 0.22 0.22 0.21 0.20 0.17 0.16 0.15 0.15 0.14 0.16 0.18 0.19 0.20 0.21 0.24
0.48 0.46 0.44 0.44 0.46 0.69 0.75 0.79 0.82 0.84 0.85 0.85 0.86 0.86 0.87 0.91 0.95 0.94 0.90 0.84 0.75 0.48 0.37 0.32 0.28 0.26 0.25 0.24 0.23 0.21 0.18 0.16 0.16 0.14 0.15 0.16 0.18 0.19 0.20 0.20 0.22 0.24 0.25
0.45 0.44 0.44 0.42 0.64 0.78 0.79 0.85 0.85 0.84 0.84 0.85 0.84 0.83 0.86 0.87 0.88 0.83 0.73 0.53 0.37 0.29 0.27 0.24 0.24 0.23 0.23 0.22 0.20 0.18 0.17 0.18 0.17 0.17 0.17 0.19 0.21 0.21 0.21 0.21 0.19 0.20 0.21
0.45 0.43 0.42 0.56 0.73 0.79 0.85 0.87 0.86 0.89 0.90 0.87 0.87 0.88 0.84 0.79 0.72 0.59 0.39 0.25 0.25 0.24 0.22 0.21 0.19 0.19 0.18 0.18 0.18 0.19 0.19 0.19 0.18 0.18 0.18 0.18 0.18 0.19 0.20 0.22 0.22 0.22 0.22
0.42 0.40 0.48 0.68 0.76 0.83 0.85 0.85 0.92 0.92 0.94 0.95 0.93 0.89 0.80 0.66 0.50 0.36 0.26 0.24 0.23 0.21 0.18 0.17 0.18 0.18 0.18 0.18 0.18 0.18 0.19 0.19 0.19 0.19 0.19 0.18 0.18 0.18 0.19 0.21 0.22 0.22 0.23
0.41 0.53 0.65 0.73 0.79 0.82 0.84 0.83 0.79 0.85 0.90 0.92 0.88 0.77 0.60 0.45 0.33 0.24 0.23 0.23 0.22 0.19 0.17 0.18 0.18 0.19 0.20 0.19 0.19 0.20 0.20 0.21 0.22 0.20 0.20 0.20 0.20 0.20 0.19 0.20 0.21 0.22 0.23
0.57 0.68 0.70 0.74 0.76 0.81 0.83 0.84 0.83 0.80 0.78 0.76 0.68 0.52 0.39 0.30 0.25 0.24 0.22 0.20 0.19 0.19 0.19 0.19 0.20 0.20 0.21 0.21 0.21 0.21 0.22 0.23 0.23 0.22 0.22 0.21 0.21 0.21 0.21 0.21 0.21 0.21 0.22
0.68 0.68 0.72 0.74 0.76 0.80 0.83 0.84 0.83 0.82 0.77 0.52 0.43 0.37 0.29 0.25 0.24 0.22 0.20 0.18 0.18 0.18 0.20 0.20 0.21 0.22 0.22 0.22 0.23 0.24 0.24 0.24 0.24 0.24 0.24 0.24 0.24 0.23 0.23 0.24 0.24 0.24 0.24
0.70 0.72 0.74 0.75 0.77 0.81 0.83 0.82 0.81 0.78 0.55 0.37 0.30 0.24 0.22 0.20 0.18 0.19 0.20 0.20 0.19 0.21 0.21 0.22 0.23 0.23 0.23 0.24 0.25 0.25 0.25 0.25 0.25 0.25 0.26 0.27 0.27 0.27 0.26 0.26 0.25 0.24 0.25
0.72 0.74 0.74 0.76 0.79 0.81 0.82 0.82 0.81 0.66 0.39 0.29 0.23 0.22 0.21 0.18 0.19 0.19 0.20 0.20 0.21 0.22 0.23 0.23 0.24 0.24 0.25 0.26 0.26 0.25 0.25 0.25 0.26 0.26 0.27 0.27 0.28 0.27 0.29 0.29 0.29 0.30 0.30
0.74 0.74 0.76 0.78 0.81 0.82 0.83 0.82 0.73 0.55 0.30 0.23 0.22 0.22 0.21 0.20 0.20 0.20 0.21 0.22 0.24 0.25 0.26 0.25 0.25 0.26 0.27 0.26 0.26 0.26 0.26 0.26 0.27 0.28 0.28 0.29 0.30 0.30 0.31 0.31 0.32 0.32 0.32
0.78 0.77 0.78 0.81 0.83 0.84 0.82 0.76 0.61 0.38 0.25 0.21 0.20 0.19 0.20 0.20 0.21 0.22 0.23 0.24 0.25 0.26 0.27 0.27 0.26 0.27 0.29 0.29 0.29 0.29 0.27 0.28 0.29 0.30 0.30 0.31 0.31 0.32 0.33 0.33 0.34 0.34 0.34
0.81 0.80 0.81 0.83 0.83 0.82 0.79 0.66 0.45 0.27 0.20 0.19 0.19 0.19 0.20 0.21 0.22 0.23 0.24 0.25 0.26 0.27 0.27 0.27 0.27 0.28 0.28 0.30 0.30 0.31 0.31 0.32 0.32 0.32 0.33 0.33 0.33 0.34 0.35 0.35 0.35 0.36 0.36
0.84 0.84 0.84 0.83 0.82 0.78 0.64 0.44 0.29 0.21 0.19 0.18 0.18 0.20 0.21 0.22 0.23 0.24 0.25 0.25 0.26 0.26 0.27 0.28 0.28 0.29 0.29 0.29 0.30 0.31 0.32 0.33 0.33 0.34 0.35 0.35 0.35 0.36 0.36 0.37 0.37 0.38 0.38
0.86 0.86 0.85 0.82 0.77 0.63 0.40 0.28 0.22 0.19 0.18 0.18 0.19 0.21 0.21 0.22 0.23 0.24 0.25 0.25 0.25 0.26 0.27 0.28 0.28 0.28 0.29 0.30 0.31 0.32 0.33 0.34 0.34 0.35 0.36 0.36 0.35 0.36 0.36 0.37 0.38 0.38 0.38

GFSGL_prec_pwat_219.txt.gz
Precipitable_Water
0.27 0.26 0.22 0.23 0.26 0.28 0.30 0.32 0.36 0.38 0.39 0.40 0.42 0.44 0.46 0.48 0.53 0.52 0.59 0.65 0.67 0.69 0.72 0.78 0.87 0.98 1.07 1.07 1.10 1.13 1.03 1.06 0.97 0.96 1.04 1.07 1.08 1.07 1.07 1.08 1.04 1.01 0.98
0.27 0.26 0.24 0.23 0.24 0.24 0.27 0.31 0.37 0.38 0.38 0.41 0.45 0.45 0.48 0.51 0.53 0.63 0.63 0.68 0.69 0.72 0.72 0.79 0.82 0.91 1.05 1.11 1.10 1.06 1.06 1.10 0.99 0.93 0.96 0.96 1.01 1.01 0.99 0.96 0.93 0.90 0.88
0.29 0.30 0.30 0.27 0.26 0.26 0.29 0.33 0.37 0.38 0.41 0.48 0.51 0.48 0.53 0.60 0.68 0.70 0.72 0.71 0.74 0.75 0.78 0.79 0.79 0.99 1.00 1.09 1.07 1.00 1.06 1.05 1.02 0.97 0.90 0.95 0.95 0.94 0.89 0.88 0.86 0.83 0.81
0.32 0.32 0.31 0.31 0.31 0.34 0.37 0.40 0.42 0.45 0.48 0.47 0.49 0.53 0.63 0.72 0.72 0.77 0.76 0.76 0.75 0.83 0.88 0.92 0.97 1.05 1.09 1.05 1.02 1.00 1.06 1.00 1.00 0.95 0.91 0.87 0.87 0.86 0.84 0.79 0.74 0.73 0.70
0.36 0.38 0.38 0.38 0.40 0.44 0.44 0.45 0.44 0.45 0.44 0.46 0.47 0.56 0.71 0.80 0.81 0.84 0.79 0.84 0.84 0.87 1.00 1.03 1.09 1.13 1.15 1.11 1.06 1.06 1.03 0.98 0.91 0.90 0.83 0.83 0.81 0.79 0.75 0.74 0.68 0.58 0.48
0.41 0.41 0.43 0.44 0.46 0.46 0.47 0.47 0.44 0.43 0.44 0.50 0.62 0.70 0.77 0.83 0.87 0.89 0.98 0.99 0.99 1.00 0.99 1.05 1.12 1.13 1.14 1.12 1.14 1.10 1.06 0.96 0.91 0.88 0.84 0.80 0.78 0.77 0.71 0.56 0.46 0.37 0.24
0.44 0.47 0.48 0.50 0.50 0.51 0.51 0.46 0.44 0.46 0.58 0.68 0.74 0.78 0.79 0.86 0.90 0.94 1.04 1.08 1.00 1.03 1.03 1.05 1.06 1.06 1.11 1.07 1.04 1.03 1.01 0.99 0.97 0.90 0.82 0.77 0.63 0.60 0.51 0.42 0.32 0.24 0.21
0.48 0.50 0.52 0.52 0.52 0.50 0.48 0.48 0.55 0.67 0.74 0.80 0.85 0.92 0.93 0.90 0.89 0.98 1.00 1.02 1.02 1.08 1.07 1.06 1.05 1.01 1.03 1.01 0.97 0.93 0.90 0.88 0.84 0.75 0.62 0.55 0.51 0.45 0.34 0.29 0.26 0.23 0.22
0.47 0.49 0.53 0.53 0.49 0.49 0.50 0.58 0.68 0.73 0.79 0.83 0.91 0.99 1.00 0.97 1.01 1.02 1.02 0.99 0.98 1.01 1.03 1.04 1.00 0.96 0.97 0.95 0.89 0.81 0.73 0.63 0.59 0.53 0.48 0.42 0.35 0.32 0.28 0.23 0.19 0.16 0.14
0.48 0.51 0.53 0.51 0.50 0.50 0.58 0.68 0.75 0.79 0.81 0.87 0.91 0.98 1.00 0.98 1.02 1.02 1.01 1.00 0.96 0.94 0.96 0.95 0.95 0.91 0.88 0.76 0.62 0.53 0.45 0.43 0.42 0.35 0.27 0.27 0.27 0.25 0.23 0.19 0.17 0.13 0.14
0.52 0.52 0.50 0.49 0.50 0.60 0.71 0.77 0.78 0.82 0.84 0.86 0.88 0.92 0.94 0.96 0.96 0.99 1.02 0.98 0.93 0.90 0.87 0.80 0.76 0.66 0.60 0.53 0.47 0.40 0.29 0.27 0.23 0.20 0.19 0.19 0.20 0.19 0.18 0.19 0.19 0.18 0.17
0.51 0.49 0.47 0.48 0.59 0.74 0.77 0.81 0.84 0.84 0.82 0.82 0.82 0.83 0.89 0.95 0.97 0.97 0.96 0.93 0.88 0.77 0.66 0.59 0.56 0.52 0.43 0.31 0.24 0.23 0.22 0.19 0.17 0.16 0.15 0.15 0.16 0.17 0.19 0.21 0.22 0.23 0.25
0.48 0.45 0.47 0.59 0.77 0.80 0.80 0.81 0.80 0.83 0.82 0.82 0.82 0.81 0.82 0.87 0.89 0.92 0.89 0.81 0.61 0.45 0.46 0.44 0.33 0.26 0.25 0.24 0.22 0.19 0.16 0.14 0.13 0.13 0.14 0.15 0.17 0.19 0.21 0.22 0.24 0.26 0.27
0.45 0.48 0.60 0.74 0.79 0.82 0.84 0.84 0.81 0.81 0.82 0.83 0.83 0.80 0.80 0.81 0.79 0.68 0.54 0.47 0.41 0.33 0.27 0.24 0.23 0.23 0.21 0.19 0.17 0.16 0.16 0.16 0.15 0.15 0.16 0.18 0.19 0.19 0.19 0.22 0.22 0.23 0.23
0.46 0.59 0.72 0.78 0.80 0.82 0.84 0.84 0.83 0.87 0.87 0.85 0.84 0.81 0.67 0.53 0.48 0.41 0.32 0.27 0.25 0.23 0.21 0.20 0.17 0.16 0.16 0.17 0.18 0.18 0.17 0.17 0.16 0.18 0.18 0.18 0.19 0.19 0.20 0.23 0.23 0.23 0.23
0.53 0.70 0.77 0.79 0.81 0.82 0.81 0.81 0.87 0.88 0.89 0.87 0.78 0.57 0.47 0.39 0.32 0.27 0.24 0.23 0.22 0.20 0.17 0.15 0.15 0.16 0.16 0.16 0.16 0.17 0.17 0.17 0.17 0.17 0.18 0.18 0.18 0.19 0.20 0.22 0.24 0.24 0.24
0.71 0.78 0.81 0.81 0.81 0.80 0.80 0.79 0.75 0.81 0.83 0.69 0.54 0.41 0.32 0.28 0.27 0.24 0.23 0.23 0.22 0.18 0.16 0.16 0.16 0.16 0.17 0.17 0.17 0.17 0.17 0.18 0.19 0.19 0.19 0.20 0.20 0.21 0.22 0.23 0.24 0.25 0.24
0.76 0.81 0.81 0.81 0.82 0.82 0.81 0.80 0.78 0.73 0.55 0.44 0.40 0.30 0.29 0.27 0.24 0.23 0.22 0.21 0.18 0.19 0.18 0.17 0.17 0.18 0.18 0.18 0.19 0.19 0.19 0.20 0.20 0.21 0.21 0.22 0.23 0.23 0.23 0.24 0.25 0.25 0.25
0.75 0.76 0.81 0.82 0.83 0.83 0.83 0.79 0.73 0.53 0.40 0.35 0.28 0.27 0.27 0.25 0.23 0.22 0.20 0.17 0.17 0.18 0.19 0.19 0.20 0.20 0.20 0.21 0.21 0.22 0.22 0.22 0.22 0.23 0.23 0.24 0.24 0.24 0.24 0.26 0.27 0.27 0.27
0.72 0.75 0.79 0.82 0.82 0.82 0.81 0.70 0.50 0.40 0.32 0.25 0.22 0.22 0.22 0.20 0.18 0.18 0.19 0.19 0.19 0.20 0.21 0.21 0.22 0.22 0.22 0.23 0.24 0.25 0.24 0.25 0.25 0.25 0.26 0.27 0.27 0.28 0.27 0.27 0.27 0.27 0.27
0.72 0.74 0.80 0.82 0.81 0.81 0.74 0.52 0.40 0.33 0.23 0.20 0.20 0.22 0.21 0.18 0.18 0.19 0.20 0.20 0.21 0.22 0.22 0.23 0.23 0.24 0.25 0.25 0.26 0.26 0.26 0.28 0.29 0.29 0.30 0.31 0.32 0.31 0.32 0.33 0.33 0.33 0.33
0.72 0.76 0.80 0.80 0.81 0.76 0.60 0.45 0.34 0.26 0.21 0.20 0.21 0.22 0.21 0.20 0.20 0.21 0.21 0.22 0.24 0.25 0.25 0.25 0.25 0.26 0.27 0.27 0.27 0.28 0.28 0.29 0.30 0.31 0.32 0.33 0.34 0.35 0.36 0.36 0.36 0.35 0.35
0.73 0.77 0.79 0.81 0.81 0.69 0.51 0.39 0.30 0.21 0.19 0.20 0.20 0.20 0.20 0.20 0.21 0.22 0.23 0.24 0.25 0.26 0.27 0.27 0.27 0.28 0.29 0.30 0.31 0.30 0.30 0.31 0.33 0.34 0.34 0.35 0.36 0.37 0.37 0.37 0.37 0.37 0.37
0.77 0.79 0.80 0.81 0.76 0.61 0.48 0.35 0.25 0.19 0.18 0.20 0.20 0.21 0.21 0.21 0.22 0.23 0.24 0.25 0.26 0.27 0.28 0.28 0.28 0.29 0.30 0.31 0.32 0.33 0.34 0.35 0.37 0.37 0.37 0.37 0.38 0.39 0.39 0.40 0.40 0.40 0.40
0.81 0.80 0.81 0.79 0.67 0.55 0.39 0.28 0.21 0.18 0.19 0.20 0.21 0.21 0.22 0.23 0.23 0.24 0.25 0.26 0.26 0.27 0.28 0.29 0.30 0.31 0.31 0.32 0.33 0.34 0.36 0.37 0.38 0.39 0.39 0.39 0.39 0.40 0.40 0.41 0.41 0.41 0.41
0.84 0.83 0.82 0.76 0.61 0.46 0.33 0.24 0.18 0.18 0.19 0.20 0.21 0.22 0.22 0.23 0.24 0.25 0.25 0.26 0.26 0.27 0.28 0.29 0.30 0.31 0.32 0.33 0.34 0.35 0.36 0.37 0.38 0.39 0.39 0.39 0.38 0.39 0.40 0.40 0.41 0.43 0.44